Vorticity
7 7 7 7 7 7 7 6 6 6 6 6 5 5 5 5 5 5 5 5 5 5 5 5 5 5 4 4 4 4 4 5 5 5 5 5 5 4 4 4 3 3 3 3 3 4 4 4 4 4 4 4 5 5 5 6 5 5 5 5 5 5 5 5 5 4 4 4 4 4 4 4 4 4 4 4 4 4 4 4 4 5 5 5 5 5 5 6 6 6 6 6 6 6 6 6 6 7 7 7 7 7 7
7 7 6 6 6 6 6 6 6 6 6 5 5 5 5 5 5 5 5 5 6 6 5 5 5 4 4 4 4 4 5 5 5 5 5 5 4 4 3 3 3 3 3 3 4 4 4 4 5 5 5 5 5 6 6 6 6 6 6 6 6 5 5 5 5 5 5 5 5 5 5 5 5 5 4 5 5 5 5 5 5 5 5 5 5 5 6 6 6 6 6 6 6 6 7 7 7 7 7 8 8 7 8
6 6 6 6 6 6 6 6 6 5 5 5 5 5 5 5 5 5 6 6 6 6 6 5 5 4 4 4 5 5 5 5 5 5 4 4 4 3 3 3 3 3 3 4 4 4 5 5 5 6 6 6 6 7 7 7 7 6 6 6 6 6 6 6 6 6 6 6 6 6 6 6 6 6 6 6 6 6 6 6 6 6 6 6 6 6 6 6 6 6 6 6 6 7 7 7 7 7 8 8 8 8 9
6 6 6 6 5 5 5 5 5 4 4 4 5 5 5 5 6 6 6 6 6 6 6 5 5 5 5 5 5 5 5 5 5 4 4 3 3 3 3 3 3 4 4 4 5 5 6 6 6 6 7 7 7 7 8 8 7 7 7 7 7 7 7 7 7 7 7 7 7 7 8 8 8 8 7 7 8 8 8 8 8 8 8 8 8 8 8 8 7 7 7 7 7 7 7 7 7 7 7 7 7 7 7
6 6 5 5 4 4 5 5 4 4 4 4 5 6 6 6 6 6 6 6 6 6 6 5 5 5 5 5 5 5 5 5 4 4 3 3 3 3 3 4 4 4 5 5 6 6 7 7 7 7 7 8 8 8 8 8 8 7 8 8 8 8 8 8 8 8 8 9 9 9 9 9 9 9 9 9 9 9 10 10 10 10 10 9 9 9 9 9 8 8 8 8 7 7 7 7 7 7 7 6 6 6 6
6 5 4 4 4 4 5 5 4 4 5 6 6 6 6 6 6 6 6 6 6 6 6 5 5 5 5 5 5 5 5 4 4 4 3 3 3 4 4 4 5 5 6 6 7 7 7 7 8 8 8 8 8 9 9 8 8 8 9 9 9 9 9 9 9 10 10 10 11 11 11 11 11 11 11 11 11 11 11 10 10 10 10 10 9 9 9 9 8 8 8 8 7 7 7 7 7 7 6 6 6 6 6
5 4 4 4 4 4 4 5 5 5 5 6 7 7 7 7 7 7 7 6 6 6 5 5 5 5 5 5 5 5 4 4 4 3 3 3 4 4 4 5 6 6 7 7 7 8 8 8 8 8 9 9 9 9 9 9 9 9 9 10 10 10 10 10 11 11 12 12 12 11 11 11 11 11 11 11 11 11 10 10 10 9 9 9 8 8 8 8 8 7 7 7 7 6 6 6 6 6 6 6 6 6 5
4 4 4 4 4 4 5 5 5 6 6 7 7 7 7 7 7 7 7 6 6 5 5 5 5 5 5 5 5 5 4 4 4 3 3 4 4 5 5 6 6 7 7 8 8 8 8 9 9 9 9 9 10 10 9 9 10 10 10 10 10 11 11 11 11 12 12 12 12 11 11 11 11 11 10 10 10 9 9 9 8 8 8 7 7 7 7 7 6 6 6 6 6 6 6 5 5 5 5 5 5 5 5
4 4 4 4 4 5 5 6 6 6 6 7 7 7 7 7 7 7 6 6 6 6 5 5 5 5 5 5 5 4 4 4 4 4 4 4 5 5 6 6 7 7 8 8 8 9 9 9 9 9 9 10 10 10 9 10 10 11 11 11 11 11 11 11 11 12 12 12 11 11 10 10 10 9 9 8 8 8 7 7 7 7 6 6 6 6 6 6 6 6 6 6 6 6 6 6 5 5 5 5 5 5 5
4 4 4 4 4 5 5 6 6 6 7 7 7 7 7 6 6 6 6 6 6 5 5 5 5 5 5 5 5 4 4 4 4 4 4 5 5 6 6 7 7 8 8 8 8 9 9 9 9 10 10 10 10 10 10 11 11 11 11 11 11 11 11 11 11 11 11 10 10 9 9 9 8 8 7 7 7 6 6 6 6 6 6 6 6 6 6 6 6 6 6 6 6 6 6 6 6 6 6 6 6 6 6
4 4 4 4 5 5 6 6 6 7 7 7 7 7 6 6 6 6 6 6 5 5 5 5 5 5 5 5 4 4 4 4 4 4 5 5 6 6 7 7 7 8 8 8 9 9 9 9 10 10 10 10 10 10 10 11 11 11 11 11 11 11 11 11 10 10 9 9 8 8 7 7 7 6 6 6 6 6 5 5 5 5 5 6 6 6 6 6 6 6 6 6 6 7 7 7 7 7 7 7 7 7 7
4 4 5 5 5 5 5 6 7 7 7 7 6 6 6 6 6 6 6 6 6 6 6 6 5 5 5 5 4 4 4 4 4 4 5 6 6 6 7 7 7 8 8 8 9 9 9 10 10 10 10 10 10 10 11 11 11 11 11 10 10 10 10 9 9 8 8 7 7 6 6 6 5 5 5 5 5 5 5 5 5 5 5 6 6 6 6 6 6 6 6 7 7 7 7 7 7 7 8 8 8 8 9
4 4 5 5 5 5 5 6 7 7 6 6 6 5 6 6 6 6 6 6 6 6 6 5 5 5 5 4 4 4 4 4 4 5 5 6 6 6 7 7 7 8 8 8 9 9 9 10 10 10 10 10 10 10 10 10 10 10 10 10 9 9 8 7 7 6 6 6 5 5 5 5 5 5 5 5 5 5 5 5 6 6 6 6 6 6 6 6 7 7 7 7 7 8 8 8 8 8 8 9 9 9 10
4 4 5 5 5 5 5 6 6 6 6 5 5 6 6 6 6 6 6 6 6 6 5 5 5 5 5 4 4 4 4 4 5 5 5 6 6 6 7 7 7 8 8 8 9 9 9 10 10 10 10 10 10 10 10 10 10 9 9 8 8 7 6 6 6 5 5 5 5 5 5 6 6 6 6 6 6 6 6 6 6 6 6 6 6 6 7 7 7 7 8 8 8 8 8 9 9 9 9 10 10 10 10
4 4 5 6 6 5 5 6 6 6 6 5 5 6 6 6 6 6 6 6 6 6 5 5 5 5 4 4 4 4 4 5 5 5 5 6 6 6 7 7 7 8 8 8 9 9 9 10 10 10 10 10 10 10 9 9 9 8 7 7 6 6 5 5 5 5 5 6 6 6 6 6 6 6 6 6 6 6 6 6 6 6 7 7 7 7 7 7 8 8 8 8 8 9 9 9 9 10 10 10 10 10 10
4 4 5 5 6 6 5 6 6 6 6 5 6 6 6 6 6 6 6 6 5 5 5 5 5 5 4 4 4 4 4 5 5 5 6 6 6 6 7 7 8 8 8 8 9 9 9 10 10 10 10 10 10 9 9 8 7 7 6 6 5 5 5 5 6 6 6 6 7 7 7 6 6 6 6 6 6 6 6 6 7 7 7 7 7 7 8 8 8 8 8 9 9 9 9 9 9 10 10 10 10 10 10
4 5 5 5 5 6 5 6 6 6 6 6 6 6 6 6 6 6 6 6 5 5 5 5 5 5 4 4 4 5 5 5 5 5 6 6 6 7 7 7 8 8 8 8 9 9 9 9 10 10 10 10 9 8 7 7 6 6 6 5 6 6 6 6 6 7 7 7 7 7 6 6 6 6 6 6 6 6 6 7 7 7 7 7 7 8 8 8 8 9 9 9 9 9 9 9 9 9 9 10 10 10 10
4 5 5 5 5 5 6 6 6 6 6 6 6 6 6 6 6 6 6 6 5 5 5 5 5 5 5 5 5 5 5 5 5 6 6 6 6 7 7 8 8 8 8 8 9 9 9 10 10 10 9 9 8 7 6 6 6 6 6 6 6 6 7 7 7 7 7 6 6 6 6 6 6 6 6 6 7 7 7 7 7 8 8 8 8 8 8 8 9 9 9 9 9 9 9 9 9 9 9 9 9 9 9
4 5 5 5 5 5 6 6 6 6 6 6 6 6 6 6 6 6 6 6 6 6 6 5 5 5 5 5 5 5 5 5 6 6 6 6 7 7 7 8 8 8 8 8 9 9 10 10 10 10 9 8 7 6 6 6 6 6 6 6 7 7 7 7 6 6 6 6 6 6 6 6 6 6 7 7 7 7 7 7 8 8 8 8 8 8 9 9 9 9 9 9 9 9 9 9 9 8 8 8 9 9 9
4 4 5 5 5 5 5 5 5 5 5 6 6 6 6 6 6 6 6 6 6 6 6 6 5 5 5 5 5 5 5 5 6 6 6 6 7 7 8 8 8 8 9 8 9 9 9 10 9 9 8 7 6 6 6 6 6 6 7 7 7 7 7 6 6 6 5 5 5 5 6 6 6 6 7 7 7 7 8 8 8 9 9 9 8 8 9 9 9 9 9 9 9 9 9 9 9 8 8 8 8 8 8
4 4 4 5 5 5 5 5 5 5 6 6 6 6 6 6 6 6 6 6 6 6 6 6 6 5 5 5 5 5 5 5 6 6 6 6 7 7 8 8 8 9 9 9 9 9 9 9 9 8 7 6 6 6 6 6 7 7 7 7 6 6 6 5 5 4 4 4 4 5 5 6 6 6 7 7 7 7 8 8 8 9 9 9 9 9 9 9 9 9 9 9 9 9 9 9 9 9 8 8 8 8 8
4 4 4 4 5 5 5 5 5 5 6 6 6 6 6 6 6 7 6 6 6 6 6 6 6 5 5 5 5 5 5 5 5 6 6 7 7 7 8 8 8 9 9 9 9 9 9 9 8 7 6 6 6 6 6 7 7 7 6 6 5 5 4 4 4 4 4 4 4 5 5 5 6 6 6 7 7 8 8 8 9 9 9 9 9 9 9 9 9 10 9 9 9 9 9 9 9 9 9 8 8 8 8
4 4 4 4 5 5 5 5 5 5 6 6 5 5 6 6 6 7 7 7 6 6 6 6 6 6 5 5 5 5 5 5 5 6 6 6 7 7 8 8 9 9 9 9 9 9 9 9 8 7 6 6 6 6 6 7 6 6 6 5 4 3 3 3 3 3 4 4 4 5 5 5 5 6 6 7 7 8 8 9 9 9 10 10 10 10 10 10 10 10 10 9 9 9 9 9 9 9 9 8 8 8 8
4 4 5 4 5 5 5 5 5 5 5 5 5 5 5 6 6 7 7 7 6 6 6 6 6 6 5 5 5 5 5 5 6 6 6 6 6 7 8 8 9 9 9 9 9 8 8 8 7 7 6 6 6 6 6 6 6 5 4 3 2 1 1 2 2 3 4 4 4 4 4 4 5 5 6 7 7 8 8 9 9 10 10 10 10 10 10 10 10 10 9 9 9 8 8 8 8 8 8 8 8 8 8
5 5 5 5 5 5 5 5 5 5 5 5 5 5 5 6 6 6 7 7 6 6 6 7 6 6 5 5 5 5 5 5 6 6 6 6 6 7 8 9 9 10 9 9 8 8 8 8 7 7 6 6 6 6 6 5 4 3 2 1 0 0 1 1 2 3 3 3 3 3 3 3 4 4 5 6 7 8 8 9 10 10 10 10 10 10 10 10 10 10 9 9 8 8 8 8 7 7 8 8 8 8 8
5 5 5 5 5 5 5 5 5 5 5 5 5 5 5 5 6 6 7 7 6 6 7 7 6 6 5 5 4 5 5 5 6 6 6 6 7 7 8 9 10 9 9 9 8 8 8 7 7 7 6 6 6 6 5 4 2 1 0 0 0 0 1 1 2 2 2 2 2 2 2 3 3 4 4 5 6 7 8 9 9 10 10 10 10 10 10 10 9 9 9 8 8 8 7 7 7 7 7 7 7 7 8
4 5 5 5 5 5 5 5 5 5 5 5 5 5 5 5 5 6 6 7 7 7 7 7 7 7 6 5 5 4 4 5 5 6 6 6 7 7 8 9 10 10 9 8 8 7 7 7 7 7 6 5 5 4 4 2 1 0 0 0 0 1 1 2 2 2 2 2 2 2 2 2 2 3 3 4 5 6 7 8 9 10 10 10 10 9 9 9 9 9 8 8 8 7 7 7 7 7 7 7 7 7 7
5 5 5 5 5 5 5 5 5 5 5 5 5 5 6 5 5 6 6 6 7 7 7 7 7 7 6 6 5 4 4 5 6 6 6 6 7 7 8 9 9 10 9 7 7 7 7 7 7 6 5 4 4 3 2 2 1 0 0 1 1 2 2 2 2 2 2 2 2 2 2 2 2 2 2 3 4 5 6 7 8 9 10 10 10 9 9 9 9 8 8 8 7 7 7 6 6 6 6 6 6 6 7
6 5 5 5 5 5 6 5 5 5 5 5 5 5 6 6 6 5 6 6 7 7 7 7 7 7 6 6 5 5 5 5 5 6 6 7 7 7 8 9 9 9 8 7 6 6 6 7 7 6 4 4 3 2 1 0 0 -0 0 1 2 2 3 3 2 2 2 2 2 2 2 2 2 2 2 2 3 4 5 6 7 8 9 9 9 9 9 9 8 8 8 8 7 7 7 6 6 6 6 6 6 6 6
6 6 6 5 5 5 6 5 5 5 5 5 5 5 5 6 6 6 6 6 7 7 7 7 7 7 7 6 6 6 5 5 5 6 6 7 7 7 8 9 9 9 8 7 6 5 6 6 6 5 4 2 1 1 0 -0 -1 -0 0 1 2 3 3 3 2 2 2 2 2 2 1 1 1 1 1 2 2 3 4 5 6 7 8 9 9 9 9 9 9 8 8 8 7 7 6 6 6 6 6 6 5 6 6
6 6 6 6 6 6 6 6 5 5 5 6 6 6 6 6 6 6 6 6 6 7 7 7 7 8 7 7 6 6 5 5 6 6 6 6 7 7 8 8 9 9 9 6 5 5 6 6 6 5 4 2 1 0 0 -0 -1 -1 -0 1 2 2 3 2 2 2 1 1 1 1 1 1 1 1 1 1 2 2 3 4 5 6 7 8 9 9 9 9 8 8 8 7 7 6 6 6 6 6 6 5 5 5 5
6 6 6 6 6 6 6 6 6 6 6 6 6 6 6 6 6 6 6 7 7 7 7 6 7 7 6 7 7 6 5 5 6 6 6 6 6 7 7 8 9 9 8 6 5 5 5 6 5 4 2 1 1 0 0 0 -0 -1 -1 -0 0 1 1 1 1 1 1 1 1 1 1 1 1 1 1 1 1 2 3 4 4 5 6 7 8 8 8 8 8 8 7 7 6 6 6 5 5 5 5 5 5 5 5
7 6 6 6 6 6 6 6 6 6 6 6 6 6 6 6 6 6 6 7 7 7 6 6 7 7 6 7 6 6 5 6 6 6 7 7 7 6 6 8 9 8 7 6 6 5 4 5 5 4 2 1 0 0 0 0 0 -0 -1 -1 -1 -1 -0 0 0 0 1 1 1 1 1 1 1 1 1 1 1 2 2 3 4 5 6 7 7 8 8 8 8 7 7 7 6 6 5 5 5 5 5 5 5 5 5
7 7 6 6 6 6 6 6 6 6 5 6 6 6 6 6 6 6 6 6 6 7 7 7 7 7 7 7 6 6 6 6 6 7 7 7 7 6 6 7 8 8 7 7 5 4 3 4 4 3 2 1 0 0 0 1 0 -0 -1 -2 -2 -2 -2 -1 -0 0 1 1 1 2 2 2 2 2 2 2 2 2 2 2 3 4 5 6 6 7 7 7 7 7 7 7 6 6 5 4 4 4 5 5 5 5 6
7 7 6 6 6 6 6 6 6 5 5 6 6 6 6 6 6 6 6 6 6 7 7 7 8 8 8 8 7 7 6 6 6 7 7 7 7 7 6 7 7 7 7 7 5 4 2 4 4 3 2 2 1 0 0 0 -0 -1 -1 -2 -3 -2 -2 -1 -1 0 1 1 2 2 2 2 2 2 2 2 2 2 2 2 2 3 4 5 6 6 7 7 7 7 7 6 6 6 5 5 4 4 4 4 5 5 5
8 7 7 7 7 7 6 6 6 5 5 5 6 6 6 6 6 6 6 6 6 7 7 7 8 8 8 8 8 7 7 6 6 6 8 8 7 6 7 7 7 7 7 7 6 4 3 4 4 3 3 2 1 0 0 -0 -0 -1 -1 -2 -2 -2 -2 -1 -0 0 1 2 2 2 2 2 2 2 2 2 2 2 2 2 2 2 3 4 5 6 6 7 7 7 7 6 6 6 5 5 5 4 4 4 4 5 5
8 8 7 7 7 7 7 7 6 6 5 5 5 6 6 6 6 6 6 6 7 7 6 7 8 9 8 8 8 7 7 6 6 6 7 8 7 7 8 7 6 6 7 7 5 4 3 3 3 3 3 2 2 1 0 -0 -0 -0 -1 -1 -1 -1 -1 -0 1 2 2 2 2 3 3 3 3 3 3 3 3 2 2 2 2 2 3 3 4 5 6 6 7 7 7 6 6 6 6 5 5 4 4 4 4 4 4
8 8 8 7 7 7 7 7 7 6 6 5 6 6 6 6 6 6 6 7 7 7 6 7 8 9 9 8 8 7 6 6 6 6 6 6 7 7 8 7 6 6 7 6 5 4 4 3 3 3 3 2 2 2 0 1 1 0 0 0 0 0 1 1 2 2 3 3 3 3 3 3 3 3 3 3 3 3 3 3 3 3 3 3 4 4 5 6 6 7 7 7 6 6 6 6 5 5 5 4 4 4 4
8 8 8 7 7 7 7 7 7 7 6 6 6 6 7 6 6 7 7 7 7 7 6 7 7 8 9 9 8 8 7 7 7 7 6 6 6 7 8 7 6 6 6 5 5 5 4 3 2 3 3 3 3 2 1 1 1 1 1 1 1 1 2 2 2 3 3 4 4 4 4 4 4 4 3 3 3 3 3 3 3 3 3 3 3 4 4 5 6 6 7 7 7 7 6 6 6 6 5 5 5 4 4
8 8 8 8 8 8 8 8 8 8 8 7 6 6 7 7 7 7 7 7 7 7 7 6 7 8 9 9 9 8 8 7 7 7 7 7 7 7 6 7 7 6 5 5 5 5 5 4 3 3 3 3 3 2 2 2 1 1 1 1 2 2 2 2 3 3 4 4 4 4 4 4 4 4 4 4 4 4 4 4 4 3 3 3 3 3 4 5 5 6 6 7 7 7 7 7 7 6 6 6 6 5 5
8 8 8 8 8 8 8 9 9 9 9 8 7 7 7 7 7 7 7 7 7 7 7 7 7 7 9 9 8 8 7 8 7 7 7 7 7 6 5 6 6 6 6 5 5 5 5 4 4 3 3 2 2 3 4 3 2 2 2 2 2 2 2 3 3 3 4 4 4 4 4 4 4 4 4 4 4 4 4 4 4 4 3 3 3 3 4 4 5 5 6 6 6 7 7 6 6 6 6 6 6 6 5
8 8 8 8 8 8 9 10 10 10 10 9 8 7 7 8 7 7 7 7 7 7 7 7 8 8 8 8 8 8 6 7 7 7 7 7 7 6 5 6 6 6 6 6 5 5 5 4 4 3 3 2 3 4 4 4 4 3 3 3 3 3 3 3 3 4 4 4 4 4 4 4 4 4 4 4 4 4 4 4 4 4 3 3 3 3 3 3 4 4 5 5 6 6 6 6 6 6 6 6 6 6 5
8 7 7 7 7 7 8 10 11 11 10 9 8 8 8 8 8 8 7 8 8 7 7 7 8 8 8 8 8 8 7 7 8 8 7 7 7 7 6 6 6 6 6 6 6 5 5 5 4 4 3 3 4 4 4 4 4 4 4 4 4 3 4 4 4 4 4 4 4 4 4 4 4 4 4 4 4 4 4 4 4 4 4 3 3 2 2 3 3 4 4 4 5 5 5 5 5 5 5 6 6 6 5
7 7 7 7 7 7 7 9 11 12 11 9 8 8 8 8 8 8 8 9 8 8 7 7 7 8 8 8 8 8 8 8 7 8 8 7 7 7 7 7 7 6 5 6 6 5 5 5 5 4 4 5 4 4 4 4 5 4 4 4 4 4 4 4 4 4 4 4 4 4 4 4 4 4 4 4 4 4 4 4 4 4 4 3 3 2 2 2 2 3 3 4 4 5 5 5 5 6 6 6 6 6 6
7 7 7 7 7 6 6 8 10 11 11 9 8 7 8 9 9 9 9 9 9 8 6 7 7 7 8 8 8 9 9 8 7 7 7 7 7 7 7 7 7 6 6 6 6 6 5 5 5 5 5 6 6 5 4 5 5 4 4 4 4 4 4 4 4 4 4 4 4 4 4 4 4 4 4 4 4 4 4 4 4 4 4 3 3 2 2 2 2 2 2 3 4 4 5 6 6 6 6 6 6 6 6
6 6 6 6 6 6 6 7 9 10 10 9 8 7 8 9 9 9 9 9 9 8 7 6 6 7 8 8 8 9 9 8 7 7 7 7 7 7 8 8 7 7 6 6 6 6 6 5 5 6 6 6 6 6 6 6 5 5 5 5 5 4 4 4 4 4 4 4 4 4 4 4 4 4 4 4 4 4 4 4 4 4 4 4 3 3 2 2 2 2 2 2 3 4 5 6 6 7 8 8 8 7 7
6 6 7 7 7 6 6 7 8 10 9 8 7 7 7 8 9 9 9 8 8 8 8 6 6 6 7 8 9 10 10 8 7 7 8 8 8 7 7 7 8 8 7 6 6 6 5 5 6 6 6 6 6 6 7 6 6 6 6 6 5 5 5 5 5 5 5 5 5 5 5 5 4 4 4 5 4 4 4 4 4 4 4 4 4 3 3 2 2 2 2 2 3 3 4 5 6 7 8 8 8 8 8
6 6 6 7 7 6 6 7 8 9 9 8 7 7 7 8 9 9 9 8 8 8 8 7 6 6 6 7 9 10 10 9 8 7 7 7 9 10 9 7 7 8 8 7 6 6 6 6 6 6 6 6 6 6 7 6 6 7 7 6 6 6 6 6 6 5 5 5 5 5 5 5 5 5 5 5 5 5 5 4 4 4 4 4 4 4 3 3 2 2 2 2 2 3 4 5 6 7 8 9 9 8 8
6 6 6 6 6 6 6 7 8 8 8 7 7 7 7 8 9 9 9 9 9 9 9 9 8 6 6 7 8 10 10 9 8 8 7 7 7 8 10 9 8 7 7 7 7 6 5 6 6 6 6 7 7 7 7 6 6 6 6 6 6 6 6 6 6 5 5 5 5 5 5 5 5 5 5 5 5 5 5 5 5 5 4 4 4 4 4 3 3 3 2 2 2 3 4 5 6 7 8 8 8 8 8
6 6 6 6 6 6 6 6 7 8 8 7 7 7 7 8 9 9 9 9 9 9 9 10 10 8 7 7 8 9 9 9 7 7 8 9 8 6 6 8 9 8 8 8 8 7 6 6 7 7 7 7 8 7 7 6 6 6 6 6 6 6 6 6 5 5 5 5 5 5 5 5 5 5 5 5 5 5 5 5 5 5 4 4 4 4 4 3 3 3 3 2 2 3 3 4 6 7 8 8 8 8 7
6 6 6 6 6 6 5 6 7 8 7 6 6 7 7 8 9 9 8 8 9 9 10 10 10 10 9 7 7 8 9 8 8 7 8 10 10 8 5 4 5 7 8 9 9 9 8 7 7 8 8 8 8 7 7 6 6 6 6 6 5 5 5 5 5 5 5 5 5 5 5 5 5 5 5 5 5 5 5 5 5 4 4 4 4 3 3 3 3 3 3 3 3 3 3 4 6 7 8 9 8 8 7
6 6 6 6 6 5 5 5 6 7 7 6 6 6 7 7 8 9 9 8 9 9 10 10 9 9 9 8 8 8 9 8 9 10 10 7 7 9 8 5 5 6 6 7 7 8 9 10 9 9 8 8 7 7 6 6 6 6 5 5 5 5 5 5 5 5 5 5 5 5 5 5 5 5 5 5 5 5 5 5 4 4 4 4 4 3 3 3 2 2 3 3 3 3 3 4 6 7 8 9 8 7 7
6 6 6 6 6 5 5 5 6 7 6 6 6 6 6 7 8 8 8 8 8 9 10 10 9 8 7 8 8 9 11 10 10 10 11 6 4 4 7 9 10 8 6 4 3 4 9 10 10 10 9 7 6 5 5 6 6 6 6 6 6 5 5 5 5 5 5 5 5 5 5 5 5 5 5 5 5 5 5 5 4 4 4 4 4 4 3 3 3 3 3 3 3 4 4 4 5 7 8 8 8 7 6
6 6 6 6 6 5 5 5 6 6 6 6 6 6 6 6 7 7 8 8 8 8 9 10 9 8 7 7 10 11 11 10 9 8 9 7 5 3 5 11 12 9 7 7 5 4 8 10 9 7 6 7 7 6 6 7 6 6 6 6 6 6 6 6 5 5 5 5 5 5 6 6 5 5 6 6 6 6 6 5 5 5 4 4 4 4 4 3 3 3 3 3 4 4 4 4 5 6 7 8 7 7 6
5 5 5 5 5 5 5 5 5 6 6 6 6 6 5 6 6 7 7 7 8 8 8 9 9 10 9 8 10 11 10 9 8 8 7 9 10 10 5 6 6 6 5 8 9 8 7 8 8 6 4 8 8 7 6 7 6 6 6 6 6 6 6 6 6 6 6 6 6 6 6 6 6 6 6 6 7 7 7 6 6 6 5 5 4 4 4 4 4 4 4 4 4 4 4 4 5 6 7 7 7 6 5
5 5 5 5 5 5 5 5 5 6 6 6 6 6 6 6 6 7 7 7 7 7 8 8 9 10 11 9 9 10 9 8 8 8 8 8 10 12 10 6 4 3 2 6 8 9 8 6 6 6 7 9 9 7 6 6 6 6 6 6 6 6 6 6 6 6 5 6 6 6 6 6 5 5 6 6 6 7 7 7 7 6 6 6 5 5 5 5 5 5 5 5 4 4 4 4 4 5 7 7 7 6 4
5 5 5 5 5 5 4 5 5 6 6 6 6 6 6 6 6 6 6 6 6 7 7 7 8 9 10 10 9 9 8 8 9 10 10 8 8 9 11 13 11 8 6 6 6 6 5 5 5 5 3 7 9 8 6 6 6 6 6 6 6 6 5 5 5 5 5 5 5 5 5 5 5 5 4 5 5 6 7 7 7 7 6 6 6 6 6 6 6 6 6 6 5 5 4 4 4 6 7 8 8 6 4
5 5 5 5 5 5 4 4 5 5 6 6 6 6 6 6 6 5 5 6 6 6 6 7 7 8 9 9 9 9 10 10 9 9 10 8 8 9 11 11 11 11 11 8 7 4 0 3 5 5 2 4 7 9 8 7 6 6 6 6 5 5 4 4 5 5 5 4 4 4 4 5 5 4 4 4 4 5 6 6 6 6 6 6 6 6 6 6 7 7 7 6 6 6 5 5 5 7 8 10 9 8 5
5 5 5 5 5 5 5 5 5 5 5 5 5 5 6 6 6 5 5 6 6 6 6 6 6 7 7 7 8 9 11 12 10 8 5 7 9 11 10 8 8 9 10 9 9 8 4 4 5 5 3 2 3 5 8 9 7 6 5 5 5 5 4 4 4 4 4 4 4 4 4 5 5 4 4 4 4 5 5 5 6 5 5 5 5 6 6 7 7 7 7 7 6 6 6 5 6 7 9 10 10 9 7
5 5 5 5 5 5 5 5 5 5 5 5 5 5 5 6 6 6 5 5 5 5 6 6 6 6 7 7 8 9 11 11 11 9 6 6 8 10 10 8 8 8 8 8 8 9 10 9 7 6 6 5 3 2 4 7 9 9 7 7 6 6 5 5 4 4 3 3 3 4 4 5 5 4 4 4 4 5 5 5 5 5 5 5 5 5 6 6 7 7 7 7 7 7 6 6 7 8 9 9 9 8 7
4 5 5 5 6 6 6 6 6 6 5 5 5 5 6 6 6 5 5 5 4 4 5 5 6 6 6 7 7 9 10 10 10 11 12 9 7 7 9 9 9 9 8 8 8 9 9 9 9 8 8 7 5 4 2 4 6 9 9 8 8 7 6 6 5 4 3 2 2 2 3 4 5 4 4 4 4 4 4 4 4 4 4 4 4 5 5 6 7 7 8 9 9 8 8 8 9 9 9 8 7 7 6
Height
3159 3159 3160 3160 3160 3160 3160 3161 3161 3161 3161 3161 3161 3162 3162 3162 3162 3162 3162 3162 3162 3162 3162 3162 3162 3163 3163 3163 3163 3163 3163 3163 3163 3163 3162 3162 3162 3162 3162 3162 3161 3161 3161 3160 3160 3160 3160 3159 3159 3158 3158 3158 3157 3157 3157 3157 3157 3156 3156 3156 3155 3155 3155 3155 3154 3154 3154 3153 3153 3153 3153 3152 3152 3152 3152 3151 3151 3151 3151 3150 3150 3150 3149 3149 3149 3148 3148 3148 3147 3147 3147 3147 3147 3146 3146 3146 3145 3145 3145 3144 3144 3144 3144
3159 3159 3159 3159 3160 3160 3160 3160 3161 3161 3161 3161 3161 3161 3162 3162 3162 3162 3162 3162 3162 3162 3162 3162 3162 3162 3162 3162 3162 3162 3162 3162 3162 3162 3162 3162 3162 3162 3162 3161 3161 3161 3160 3160 3160 3160 3159 3159 3158 3158 3158 3157 3157 3157 3157 3157 3156 3156 3155 3155 3155 3155 3154 3154 3154 3154 3153 3153 3153 3153 3152 3152 3152 3152 3151 3151 3151 3150 3150 3150 3150 3149 3149 3149 3148 3148 3148 3147 3147 3147 3147 3146 3146 3146 3146 3145 3145 3144 3144 3143 3143 3143 3143
3159 3159 3159 3159 3159 3160 3160 3160 3160 3161 3161 3161 3161 3161 3161 3162 3162 3162 3162 3162 3162 3162 3162 3162 3162 3162 3162 3162 3162 3162 3162 3162 3162 3162 3162 3162 3162 3162 3161 3161 3161 3160 3160 3160 3159 3159 3159 3158 3158 3158 3157 3157 3157 3157 3157 3156 3156 3155 3155 3155 3154 3154 3154 3154 3154 3153 3153 3153 3152 3152 3152 3152 3152 3151 3151 3151 3150 3150 3150 3149 3149 3149 3149 3148 3148 3148 3147 3147 3147 3147 3146 3146 3145 3145 3145 3144 3144 3144 3143 3143 3143 3142 3142
3158 3158 3158 3159 3159 3159 3160 3160 3160 3160 3160 3160 3161 3161 3161 3161 3161 3162 3162 3162 3162 3162 3162 3162 3162 3162 3162 3162 3162 3162 3162 3162 3162 3162 3162 3162 3161 3161 3161 3160 3160 3160 3159 3159 3159 3159 3158 3158 3158 3157 3157 3157 3156 3156 3156 3156 3155 3155 3155 3154 3154 3154 3154 3153 3153 3153 3153 3152 3152 3152 3152 3152 3151 3151 3151 3150 3150 3150 3149 3149 3149 3148 3148 3148 3148 3147 3147 3147 3146 3146 3146 3145 3145 3144 3144 3143 3143 3143 3142 3142 3142 3142 3141
3158 3158 3158 3159 3159 3159 3159 3160 3159 3159 3160 3160 3160 3161 3161 3161 3161 3161 3161 3161 3162 3162 3162 3162 3162 3162 3162 3162 3162 3162 3162 3162 3162 3162 3161 3161 3161 3161 3160 3160 3160 3159 3159 3159 3158 3158 3158 3157 3157 3157 3157 3156 3156 3156 3156 3155 3155 3155 3154 3154 3154 3153 3153 3153 3153 3152 3152 3152 3152 3152 3151 3151 3151 3150 3150 3150 3150 3149 3149 3149 3148 3148 3148 3147 3147 3147 3147 3146 3146 3145 3145 3144 3144 3144 3143 3143 3143 3142 3142 3142 3141 3141 3140
3157 3158 3158 3158 3158 3159 3159 3159 3159 3159 3160 3160 3160 3160 3160 3161 3161 3161 3161 3161 3161 3162 3162 3162 3162 3162 3162 3162 3162 3162 3162 3161 3161 3161 3161 3161 3161 3160 3160 3160 3159 3159 3159 3158 3158 3158 3157 3157 3157 3157 3156 3156 3156 3155 3155 3155 3154 3154 3154 3154 3153 3153 3153 3153 3152 3152 3152 3152 3152 3151 3151 3151 3151 3150 3150 3150 3149 3149 3149 3148 3148 3147 3147 3147 3147 3146 3146 3146 3145 3145 3144 3144 3143 3143 3143 3142 3142 3142 3141 3141 3140 3140 3140
3157 3157 3158 3158 3158 3158 3159 3159 3159 3159 3159 3159 3160 3160 3160 3160 3160 3161 3161 3161 3161 3161 3161 3161 3161 3161 3161 3161 3161 3161 3161 3161 3161 3161 3161 3161 3160 3160 3160 3159 3159 3159 3158 3158 3158 3157 3157 3157 3157 3156 3156 3156 3155 3155 3155 3154 3154 3154 3154 3153 3153 3153 3153 3152 3152 3152 3152 3152 3152 3151 3151 3151 3150 3150 3150 3149 3149 3149 3148 3148 3148 3147 3147 3147 3146 3146 3146 3145 3145 3144 3144 3143 3143 3142 3142 3142 3141 3141 3141 3140 3140 3139 3139
3157 3157 3157 3157 3158 3158 3158 3158 3159 3159 3159 3159 3159 3160 3160 3160 3160 3160 3160 3160 3161 3161 3161 3161 3161 3161 3161 3161 3161 3161 3161 3161 3161 3161 3160 3160 3160 3160 3159 3159 3159 3158 3158 3158 3157 3157 3157 3156 3156 3156 3155 3155 3155 3155 3154 3154 3154 3154 3153 3153 3153 3153 3152 3152 3152 3152 3152 3152 3151 3151 3151 3150 3150 3150 3150 3149 3149 3148 3148 3148 3147 3147 3147 3147 3146 3146 3145 3145 3144 3144 3143 3143 3142 3142 3142 3141 3141 3140 3140 3139 3139 3139 3138
3157 3157 3157 3157 3157 3158 3158 3158 3158 3158 3159 3159 3159 3159 3159 3160 3160 3160 3160 3160 3160 3161 3161 3161 3161 3161 3161 3161 3161 3161 3161 3161 3161 3160 3160 3160 3160 3159 3159 3159 3158 3158 3158 3157 3157 3157 3157 3156 3156 3155 3155 3155 3155 3154 3154 3154 3154 3153 3153 3153 3153 3152 3152 3152 3152 3152 3152 3152 3151 3151 3151 3150 3150 3150 3150 3149 3149 3148 3148 3147 3147 3147 3147 3146 3146 3145 3145 3144 3144 3143 3143 3142 3142 3142 3141 3141 3140 3140 3139 3139 3138 3138 3137
3156 3156 3157 3157 3157 3157 3158 3158 3158 3158 3158 3159 3159 3159 3159 3159 3159 3160 3160 3160 3160 3160 3160 3160 3160 3160 3160 3160 3160 3160 3160 3160 3160 3160 3160 3159 3159 3159 3159 3158 3158 3158 3157 3157 3157 3157 3156 3156 3155 3155 3155 3155 3154 3154 3154 3154 3153 3153 3153 3153 3153 3152 3152 3152 3152 3152 3152 3152 3151 3151 3151 3150 3150 3150 3149 3149 3148 3148 3148 3147 3147 3147 3146 3146 3145 3145 3144 3144 3143 3143 3142 3142 3142 3141 3141 3140 3139 3139 3138 3138 3137 3137 3137
3156 3156 3156 3156 3157 3157 3157 3157 3158 3158 3158 3158 3158 3159 3159 3159 3159 3159 3160 3160 3160 3160 3160 3160 3160 3160 3160 3160 3160 3160 3160 3160 3160 3160 3159 3159 3159 3159 3158 3158 3158 3157 3157 3157 3157 3156 3156 3156 3155 3155 3154 3154 3154 3154 3154 3153 3153 3153 3153 3153 3153 3152 3152 3152 3152 3152 3152 3151 3151 3151 3151 3150 3150 3150 3149 3149 3148 3148 3147 3147 3147 3146 3146 3146 3145 3145 3144 3144 3143 3142 3142 3142 3141 3140 3140 3139 3139 3138 3138 3137 3137 3137 3136
3156 3156 3156 3156 3157 3157 3157 3157 3157 3158 3158 3158 3158 3158 3158 3159 3159 3159 3159 3159 3159 3160 3160 3160 3160 3160 3160 3160 3160 3160 3160 3160 3160 3159 3159 3159 3158 3158 3158 3158 3157 3157 3157 3157 3156 3156 3156 3155 3155 3155 3154 3154 3154 3154 3153 3153 3153 3153 3153 3153 3152 3152 3152 3152 3152 3152 3152 3151 3151 3151 3151 3150 3150 3149 3149 3149 3148 3148 3147 3147 3147 3146 3146 3145 3145 3144 3144 3143 3143 3142 3142 3141 3140 3140 3139 3139 3138 3137 3137 3137 3136 3136 3135
3155 3156 3156 3156 3156 3157 3157 3157 3157 3157 3158 3158 3158 3158 3159 3159 3159 3159 3159 3159 3159 3159 3159 3160 3160 3160 3160 3160 3160 3160 3160 3159 3159 3159 3159 3158 3158 3158 3157 3157 3157 3157 3157 3156 3156 3156 3155 3155 3155 3155 3154 3154 3154 3153 3153 3153 3153 3153 3153 3153 3152 3152 3152 3152 3152 3152 3151 3151 3151 3151 3150 3150 3150 3149 3149 3148 3148 3147 3147 3147 3146 3146 3145 3145 3144 3144 3143 3143 3142 3142 3141 3141 3140 3139 3139 3138 3137 3137 3136 3136 3136 3135 3134
3155 3155 3156 3156 3156 3156 3156 3157 3157 3157 3157 3157 3158 3158 3159 3159 3159 3159 3159 3159 3159 3159 3159 3159 3159 3160 3160 3160 3160 3159 3159 3159 3159 3159 3158 3158 3158 3157 3157 3157 3157 3156 3156 3156 3156 3155 3155 3155 3155 3154 3154 3154 3154 3153 3153 3153 3153 3153 3153 3153 3152 3152 3152 3152 3152 3151 3151 3151 3151 3151 3150 3150 3150 3149 3149 3148 3148 3147 3147 3147 3146 3146 3145 3145 3144 3143 3143 3142 3142 3141 3141 3140 3139 3139 3138 3137 3137 3136 3136 3135 3135 3134 3134
3155 3155 3155 3156 3156 3156 3156 3157 3157 3157 3157 3157 3157 3158 3158 3158 3158 3158 3159 3159 3159 3159 3159 3159 3159 3159 3159 3159 3159 3159 3159 3159 3158 3158 3158 3158 3157 3157 3157 3157 3156 3156 3156 3156 3155 3155 3155 3155 3154 3154 3154 3154 3154 3153 3153 3153 3153 3153 3153 3152 3152 3152 3152 3152 3152 3151 3151 3151 3151 3150 3150 3150 3149 3149 3148 3148 3147 3147 3147 3146 3146 3145 3145 3144 3143 3143 3142 3142 3142 3141 3140 3140 3139 3138 3137 3137 3136 3136 3135 3135 3134 3134 3133
3154 3155 3155 3155 3156 3156 3156 3156 3157 3157 3157 3157 3157 3157 3157 3158 3158 3158 3158 3158 3158 3159 3159 3159 3159 3159 3159 3159 3159 3159 3158 3158 3158 3158 3157 3157 3157 3157 3157 3156 3156 3156 3156 3155 3155 3155 3155 3154 3154 3154 3154 3154 3153 3153 3153 3153 3153 3153 3152 3152 3152 3152 3152 3152 3151 3151 3151 3151 3150 3150 3150 3149 3149 3148 3148 3147 3147 3147 3146 3146 3145 3145 3144 3143 3143 3142 3142 3141 3141 3140 3140 3139 3138 3138 3137 3136 3136 3135 3134 3134 3133 3133 3132
3154 3155 3155 3155 3156 3156 3156 3156 3156 3157 3157 3157 3157 3157 3157 3157 3158 3158 3158 3158 3158 3158 3158 3158 3158 3159 3158 3158 3158 3158 3158 3158 3157 3157 3157 3157 3157 3157 3156 3156 3156 3155 3155 3155 3155 3155 3154 3154 3154 3154 3154 3153 3153 3153 3153 3153 3153 3152 3152 3152 3152 3152 3152 3151 3151 3151 3151 3150 3150 3150 3149 3149 3149 3148 3148 3147 3147 3146 3146 3145 3144 3144 3143 3143 3142 3142 3141 3141 3140 3140 3139 3138 3138 3137 3137 3136 3135 3134 3134 3133 3133 3132 3132
3154 3154 3155 3155 3155 3155 3156 3156 3156 3156 3156 3157 3157 3157 3157 3157 3157 3157 3157 3157 3157 3158 3158 3158 3158 3158 3158 3158 3158 3158 3157 3157 3157 3157 3157 3157 3156 3156 3156 3156 3155 3155 3155 3155 3154 3154 3154 3154 3154 3154 3154 3153 3153 3153 3153 3153 3153 3152 3152 3152 3152 3152 3152 3151 3151 3151 3150 3150 3150 3149 3149 3149 3148 3148 3147 3147 3146 3146 3145 3144 3144 3143 3143 3142 3142 3141 3141 3140 3139 3139 3138 3137 3137 3137 3136 3135 3135 3134 3133 3133 3132 3132 3131
3153 3154 3154 3155 3155 3155 3155 3155 3156 3156 3156 3156 3156 3156 3157 3157 3157 3157 3157 3157 3157 3157 3157 3157 3157 3157 3157 3157 3157 3157 3157 3157 3157 3156 3156 3156 3156 3156 3156 3155 3155 3155 3155 3154 3154 3154 3154 3154 3154 3154 3153 3153 3153 3153 3153 3152 3152 3152 3152 3152 3152 3152 3151 3151 3151 3151 3150 3150 3150 3149 3149 3148 3148 3147 3147 3146 3146 3145 3145 3144 3143 3143 3142 3142 3141 3140 3140 3139 3139 3138 3137 3137 3136 3136 3135 3135 3134 3133 3133 3132 3132 3131 3130
3153 3153 3154 3154 3154 3155 3155 3155 3155 3155 3156 3156 3156 3156 3156 3156 3156 3156 3156 3156 3157 3157 3157 3157 3157 3157 3157 3157 3157 3157 3157 3156 3156 3156 3156 3156 3156 3155 3155 3155 3155 3154 3154 3154 3154 3154 3154 3154 3154 3153 3153 3153 3153 3153 3152 3152 3152 3152 3152 3152 3152 3151 3151 3151 3151 3150 3150 3150 3149 3149 3148 3148 3147 3147 3147 3146 3145 3145 3144 3143 3143 3142 3142 3141 3140 3139 3139 3138 3138 3137 3137 3136 3136 3135 3134 3134 3133 3133 3132 3132 3131 3130 3130
3153 3153 3153 3154 3154 3154 3154 3154 3155 3155 3155 3155 3155 3155 3155 3156 3156 3156 3156 3156 3156 3156 3156 3157 3157 3157 3157 3156 3156 3156 3156 3156 3156 3155 3155 3155 3155 3155 3155 3155 3154 3154 3154 3154 3154 3154 3153 3153 3153 3153 3153 3153 3153 3152 3152 3152 3152 3152 3152 3152 3152 3151 3151 3151 3150 3150 3150 3149 3149 3148 3148 3147 3147 3147 3146 3145 3145 3144 3144 3143 3142 3142 3141 3140 3140 3139 3138 3138 3137 3137 3136 3135 3135 3134 3134 3133 3133 3132 3132 3131 3130 3130 3129
3152 3153 3153 3153 3153 3154 3154 3154 3154 3154 3154 3155 3155 3155 3155 3155 3155 3155 3155 3155 3156 3156 3156 3156 3156 3156 3156 3156 3156 3156 3155 3155 3155 3155 3155 3155 3155 3155 3154 3154 3154 3154 3154 3154 3153 3153 3153 3153 3153 3153 3153 3153 3152 3152 3152 3152 3152 3152 3152 3152 3151 3151 3151 3150 3150 3150 3149 3149 3149 3148 3147 3147 3147 3146 3146 3145 3144 3144 3143 3142 3142 3141 3140 3140 3139 3138 3138 3137 3137 3136 3135 3135 3134 3133 3133 3132 3132 3132 3131 3130 3130 3129 3128
3152 3152 3152 3153 3153 3153 3153 3153 3153 3154 3154 3154 3154 3154 3154 3154 3155 3155 3155 3155 3155 3155 3155 3155 3156 3156 3156 3155 3155 3155 3155 3155 3155 3155 3154 3154 3154 3154 3154 3154 3154 3154 3153 3153 3153 3153 3153 3153 3153 3153 3153 3152 3152 3152 3152 3152 3152 3152 3152 3151 3151 3151 3150 3150 3150 3149 3149 3149 3148 3148 3147 3147 3146 3146 3145 3144 3144 3143 3142 3142 3141 3141 3140 3139 3138 3138 3137 3137 3136 3135 3135 3134 3133 3133 3132 3132 3131 3131 3130 3130 3129 3128 3128
3151 3152 3152 3152 3152 3152 3153 3153 3153 3153 3153 3154 3154 3154 3154 3154 3154 3154 3154 3154 3155 3155 3155 3155 3155 3155 3155 3155 3155 3155 3155 3154 3154 3154 3154 3154 3154 3154 3154 3153 3153 3153 3153 3153 3153 3153 3153 3153 3153 3153 3152 3152 3152 3152 3152 3152 3152 3151 3151 3151 3151 3150 3150 3150 3150 3149 3149 3148 3148 3147 3147 3146 3146 3145 3145 3144 3143 3143 3142 3142 3141 3140 3139 3139 3138 3137 3137 3136 3136 3135 3134 3134 3133 3132 3132 3131 3131 3130 3129 3129 3128 3128 3127
3150 3151 3151 3152 3152 3152 3152 3152 3152 3153 3153 3153 3153 3153 3153 3153 3154 3154 3154 3154 3154 3154 3154 3154 3154 3154 3154 3154 3154 3154 3154 3154 3154 3154 3154 3154 3153 3153 3153 3153 3153 3153 3153 3153 3152 3152 3152 3152 3152 3152 3152 3152 3152 3152 3152 3152 3151 3151 3151 3151 3150 3150 3150 3149 3149 3149 3148 3148 3147 3147 3147 3146 3145 3145 3144 3144 3143 3142 3142 3141 3140 3140 3139 3138 3137 3137 3136 3135 3135 3134 3134 3133 3133 3132 3131 3131 3130 3129 3129 3128 3127 3127 3127
3150 3150 3151 3151 3151 3152 3152 3152 3152 3152 3152 3152 3153 3153 3153 3153 3153 3153 3153 3153 3153 3154 3154 3154 3154 3154 3154 3154 3154 3154 3153 3153 3153 3153 3153 3153 3153 3153 3153 3152 3152 3152 3152 3152 3152 3152 3152 3152 3152 3152 3152 3152 3152 3152 3151 3151 3151 3151 3151 3150 3150 3150 3149 3149 3149 3148 3148 3148 3147 3147 3146 3146 3145 3145 3144 3143 3143 3142 3141 3141 3140 3139 3138 3137 3137 3136 3135 3135 3134 3134 3133 3132 3132 3132 3131 3130 3129 3129 3128 3127 3127 3126 3126
3149 3150 3150 3150 3151 3151 3151 3152 3152 3152 3152 3152 3152 3152 3152 3152 3152 3153 3153 3153 3153 3153 3153 3153 3153 3153 3153 3153 3153 3153 3153 3153 3153 3153 3152 3152 3152 3152 3152 3152 3152 3152 3152 3152 3152 3152 3152 3152 3152 3152 3152 3152 3151 3151 3151 3151 3151 3151 3150 3150 3150 3149 3149 3149 3148 3148 3148 3147 3147 3146 3146 3145 3145 3144 3143 3143 3142 3142 3141 3140 3139 3138 3138 3137 3136 3135 3135 3134 3133 3133 3132 3132 3131 3131 3130 3129 3129 3128 3127 3127 3126 3126 3125
3148 3149 3149 3150 3150 3150 3151 3151 3151 3151 3151 3152 3152 3152 3152 3152 3152 3152 3152 3152 3152 3152 3153 3153 3153 3153 3153 3153 3152 3152 3152 3152 3152 3152 3152 3152 3152 3152 3152 3152 3152 3152 3152 3152 3152 3151 3151 3151 3152 3152 3151 3151 3151 3151 3151 3151 3150 3150 3150 3150 3149 3149 3148 3148 3148 3148 3147 3147 3146 3146 3145 3145 3144 3144 3143 3142 3142 3141 3140 3140 3139 3138 3137 3137 3136 3135 3134 3133 3133 3132 3132 3131 3131 3130 3129 3129 3128 3127 3127 3126 3126 3125 3124
3148 3148 3149 3149 3149 3150 3150 3150 3150 3151 3151 3151 3151 3151 3151 3151 3152 3152 3152 3152 3152 3152 3152 3152 3152 3152 3152 3152 3152 3152 3152 3152 3152 3152 3152 3152 3151 3151 3151 3151 3151 3151 3151 3151 3151 3151 3151 3151 3151 3151 3151 3151 3151 3151 3150 3150 3150 3150 3150 3149 3149 3148 3148 3148 3147 3147 3147 3147 3146 3145 3145 3144 3144 3143 3142 3142 3141 3141 3140 3139 3138 3137 3137 3136 3135 3134 3134 3133 3132 3132 3131 3130 3130 3129 3128 3128 3127 3127 3126 3125 3125 3124 3123
3147 3148 3148 3148 3149 3149 3149 3150 3150 3150 3150 3150 3151 3151 3151 3151 3151 3151 3151 3151 3151 3151 3152 3152 3152 3152 3152 3152 3152 3151 3151 3151 3151 3151 3151 3151 3151 3151 3151 3151 3151 3151 3151 3151 3151 3151 3151 3151 3151 3151 3151 3151 3150 3150 3150 3150 3150 3149 3149 3149 3148 3148 3147 3147 3147 3147 3146 3146 3146 3145 3144 3144 3143 3142 3142 3141 3141 3140 3139 3139 3138 3137 3136 3136 3135 3134 3133 3132 3132 3131 3131 3130 3129 3128 3128 3127 3126 3126 3125 3124 3124 3123 3122
3147 3147 3147 3148 3148 3148 3149 3149 3149 3149 3149 3150 3150 3150 3150 3150 3150 3150 3150 3151 3151 3151 3151 3151 3151 3151 3151 3151 3151 3151 3151 3151 3150 3150 3150 3150 3150 3150 3150 3150 3150 3150 3151 3151 3150 3150 3150 3150 3150 3150 3150 3150 3150 3150 3150 3149 3149 3149 3149 3148 3148 3147 3147 3147 3147 3146 3146 3146 3145 3144 3144 3143 3143 3142 3142 3141 3140 3139 3139 3138 3137 3137 3136 3135 3134 3133 3133 3132 3131 3131 3130 3129 3129 3128 3127 3126 3126 3125 3124 3123 3123 3122 3122
3146 3146 3147 3147 3147 3148 3148 3148 3149 3149 3149 3149 3149 3149 3149 3150 3150 3150 3150 3150 3150 3150 3150 3150 3150 3151 3150 3150 3150 3150 3150 3150 3150 3150 3150 3150 3150 3150 3150 3150 3150 3150 3150 3150 3150 3150 3150 3150 3150 3150 3150 3150 3149 3149 3149 3149 3149 3148 3148 3148 3147 3147 3147 3147 3146 3146 3145 3145 3144 3144 3143 3143 3142 3142 3141 3140 3139 3139 3138 3137 3137 3136 3135 3135 3134 3133 3132 3131 3131 3130 3129 3129 3128 3127 3127 3126 3125 3124 3123 3122 3122 3121 3121
3145 3146 3146 3147 3147 3147 3147 3148 3148 3148 3148 3148 3149 3149 3149 3149 3149 3149 3149 3149 3149 3149 3149 3150 3150 3150 3150 3150 3150 3150 3150 3150 3149 3149 3149 3149 3149 3149 3149 3149 3149 3149 3150 3150 3150 3150 3149 3149 3149 3149 3149 3149 3149 3149 3148 3148 3148 3148 3148 3147 3147 3147 3147 3146 3146 3145 3145 3144 3144 3143 3143 3142 3142 3141 3140 3140 3139 3138 3137 3137 3136 3135 3135 3134 3133 3132 3132 3131 3130 3129 3128 3128 3127 3127 3126 3125 3124 3123 3123 3122 3121 3120 3120
3145 3145 3145 3146 3146 3147 3147 3147 3147 3147 3147 3147 3148 3148 3148 3148 3148 3148 3148 3148 3148 3149 3149 3149 3149 3149 3149 3149 3149 3149 3149 3149 3149 3149 3149 3149 3149 3149 3149 3149 3149 3149 3149 3149 3149 3149 3149 3149 3149 3149 3149 3148 3148 3148 3148 3148 3147 3147 3147 3147 3147 3146 3146 3146 3145 3145 3144 3144 3143 3143 3142 3142 3141 3140 3139 3139 3138 3137 3137 3136 3135 3135 3134 3133 3132 3132 3131 3130 3129 3128 3127 3127 3126 3126 3125 3124 3124 3123 3122 3121 3120 3119 3119
3144 3144 3145 3145 3145 3146 3146 3146 3147 3147 3147 3147 3147 3147 3147 3147 3147 3147 3148 3148 3148 3148 3148 3148 3149 3149 3149 3149 3149 3149 3149 3149 3148 3148 3148 3148 3148 3148 3148 3148 3148 3148 3148 3148 3148 3148 3148 3148 3148 3148 3148 3148 3148 3147 3147 3147 3147 3147 3147 3146 3146 3146 3145 3145 3145 3144 3144 3143 3142 3142 3141 3141 3140 3139 3139 3138 3137 3137 3136 3135 3135 3134 3133 3132 3132 3131 3130 3129 3128 3127 3126 3126 3125 3124 3124 3123 3122 3122 3121 3120 3119 3118 3117
3143 3144 3144 3144 3145 3145 3145 3146 3146 3146 3146 3146 3146 3147 3147 3147 3147 3147 3147 3147 3147 3147 3147 3147 3148 3148 3148 3148 3148 3148 3148 3148 3148 3148 3148 3148 3148 3148 3148 3148 3148 3148 3148 3148 3148 3148 3148 3148 3147 3147 3147 3147 3147 3147 3147 3147 3146 3146 3146 3146 3145 3145 3145 3144 3144 3143 3143 3142 3142 3141 3141 3140 3139 3139 3138 3137 3137 3136 3135 3135 3134 3133 3132 3132 3131 3130 3129 3128 3127 3127 3126 3125 3124 3123 3122 3122 3121 3121 3120 3119 3118 3117 3117
3143 3143 3143 3143 3144 3144 3144 3145 3145 3145 3145 3145 3146 3146 3146 3146 3146 3146 3146 3146 3147 3147 3147 3147 3147 3147 3147 3147 3147 3147 3147 3147 3147 3147 3147 3147 3147 3147 3147 3147 3147 3147 3147 3147 3147 3147 3147 3147 3147 3147 3147 3147 3146 3146 3146 3146 3146 3145 3145 3145 3145 3144 3144 3143 3143 3142 3142 3142 3141 3140 3140 3139 3138 3138 3137 3137 3136 3135 3135 3134 3133 3132 3132 3131 3130 3129 3128 3127 3126 3126 3125 3124 3123 3122 3121 3121 3120 3119 3119 3118 3117 3116 3116
3142 3142 3143 3143 3143 3143 3144 3144 3144 3145 3145 3145 3145 3145 3145 3145 3145 3145 3146 3146 3146 3146 3146 3146 3147 3147 3147 3147 3147 3147 3147 3147 3147 3147 3147 3147 3147 3147 3147 3147 3147 3147 3147 3147 3147 3147 3147 3146 3146 3146 3146 3146 3146 3146 3145 3145 3145 3145 3144 3144 3144 3143 3143 3142 3142 3142 3141 3141 3140 3139 3139 3138 3137 3137 3136 3136 3135 3134 3134 3133 3132 3131 3131 3130 3129 3128 3127 3126 3125 3125 3124 3123 3122 3121 3120 3119 3119 3118 3117 3117 3116 3115 3114
3142 3142 3142 3142 3142 3143 3143 3143 3143 3144 3144 3144 3144 3144 3145 3145 3145 3145 3145 3145 3145 3145 3145 3145 3146 3146 3146 3146 3146 3146 3146 3146 3146 3146 3146 3146 3146 3146 3146 3146 3146 3146 3146 3146 3146 3146 3146 3146 3146 3145 3145 3145 3145 3145 3145 3144 3144 3144 3144 3143 3143 3142 3142 3142 3141 3141 3140 3140 3139 3138 3138 3137 3137 3136 3135 3135 3134 3133 3133 3132 3131 3130 3130 3129 3128 3127 3126 3125 3124 3124 3123 3122 3121 3120 3119 3118 3117 3117 3116 3115 3115 3114 3113
3141 3141 3141 3142 3142 3142 3142 3142 3143 3143 3143 3143 3143 3143 3144 3144 3144 3144 3144 3144 3144 3144 3144 3145 3145 3145 3145 3146 3146 3145 3145 3146 3146 3146 3146 3146 3146 3146 3146 3146 3146 3146 3145 3145 3145 3145 3145 3145 3145 3145 3144 3144 3144 3144 3144 3143 3143 3143 3143 3142 3142 3142 3141 3141 3140 3140 3139 3139 3138 3137 3137 3137 3136 3135 3134 3134 3133 3132 3132 3131 3130 3129 3129 3128 3127 3126 3125 3124 3123 3122 3122 3121 3120 3119 3118 3117 3116 3115 3115 3114 3113 3112 3112
3140 3140 3141 3141 3141 3141 3141 3142 3142 3142 3142 3142 3142 3143 3143 3143 3143 3143 3143 3143 3143 3143 3143 3144 3144 3144 3144 3145 3145 3145 3145 3145 3145 3145 3145 3145 3145 3145 3145 3145 3145 3145 3145 3145 3145 3144 3144 3144 3144 3144 3143 3143 3143 3143 3143 3143 3142 3142 3142 3142 3141 3141 3140 3140 3139 3139 3138 3138 3137 3137 3136 3136 3135 3134 3133 3133 3132 3132 3131 3130 3129 3128 3127 3127 3126 3125 3124 3123 3122 3122 3121 3120 3119 3118 3117 3116 3115 3114 3113 3112 3112 3111 3110
3139 3139 3140 3140 3140 3140 3141 3141 3141 3142 3142 3142 3142 3142 3142 3142 3142 3142 3142 3143 3143 3143 3142 3143 3143 3143 3144 3144 3144 3144 3144 3144 3144 3144 3144 3144 3144 3144 3144 3144 3144 3144 3144 3144 3144 3144 3143 3143 3143 3143 3142 3142 3142 3142 3142 3142 3142 3141 3141 3141 3140 3140 3139 3139 3138 3138 3137 3137 3136 3136 3135 3134 3134 3133 3132 3132 3131 3130 3130 3129 3128 3127 3127 3126 3125 3124 3123 3122 3121 3120 3119 3118 3117 3117 3116 3115 3114 3113 3112 3111 3111 3110 3109
3138 3139 3139 3139 3139 3139 3140 3140 3140 3141 3141 3141 3141 3141 3141 3142 3142 3142 3142 3142 3142 3142 3142 3142 3142 3142 3143 3143 3143 3143 3143 3143 3143 3143 3143 3143 3143 3143 3143 3143 3143 3143 3143 3143 3143 3143 3142 3142 3142 3142 3142 3142 3141 3141 3141 3141 3140 3140 3140 3139 3139 3138 3138 3137 3137 3137 3136 3136 3135 3135 3134 3133 3133 3132 3131 3131 3130 3129 3128 3128 3127 3126 3125 3125 3124 3123 3122 3121 3120 3119 3118 3117 3117 3116 3115 3114 3113 3112 3111 3110 3109 3108 3107
3137 3138 3138 3138 3138 3138 3139 3139 3139 3140 3140 3140 3140 3140 3140 3140 3141 3141 3141 3141 3141 3141 3141 3141 3141 3142 3142 3142 3142 3142 3142 3142 3142 3143 3143 3143 3143 3143 3143 3143 3143 3142 3142 3142 3142 3142 3142 3142 3141 3141 3141 3141 3140 3140 3140 3140 3139 3139 3139 3138 3138 3137 3137 3137 3136 3136 3135 3135 3134 3133 3133 3132 3132 3131 3130 3129 3129 3128 3127 3127 3126 3125 3124 3123 3123 3122 3121 3120 3119 3118 3117 3116 3115 3114 3113 3112 3112 3111 3110 3109 3108 3107 3106
3137 3137 3137 3137 3138 3138 3138 3138 3138 3139 3139 3139 3139 3139 3139 3139 3140 3140 3140 3140 3141 3140 3140 3140 3140 3141 3141 3141 3142 3142 3142 3142 3142 3142 3142 3142 3142 3142 3142 3142 3142 3142 3142 3141 3141 3141 3141 3141 3140 3140 3140 3140 3139 3139 3139 3138 3138 3138 3137 3137 3137 3136 3136 3135 3135 3134 3134 3133 3133 3132 3132 3131 3130 3130 3129 3128 3127 3127 3126 3125 3125 3124 3123 3122 3122 3121 3120 3119 3118 3117 3116 3115 3114 3113 3112 3111 3110 3109 3108 3107 3107 3106 3105
3136 3136 3137 3137 3137 3137 3137 3137 3137 3138 3138 3138 3138 3138 3138 3139 3139 3139 3139 3139 3140 3140 3139 3139 3139 3140 3140 3140 3141 3141 3141 3141 3141 3141 3141 3141 3141 3141 3141 3141 3141 3141 3141 3140 3140 3140 3140 3139 3139 3139 3139 3139 3138 3138 3138 3137 3137 3137 3136 3136 3135 3135 3134 3134 3133 3133 3132 3132 3132 3131 3130 3130 3129 3128 3128 3127 3126 3126 3125 3124 3123 3122 3122 3121 3120 3119 3118 3117 3117 3116 3115 3114 3113 3112 3111 3110 3109 3108 3107 3106 3105 3104 3103
3135 3135 3136 3136 3136 3136 3136 3136 3137 3137 3137 3137 3137 3137 3137 3138 3138 3138 3138 3138 3139 3139 3138 3138 3138 3139 3139 3139 3140 3140 3140 3140 3140 3140 3140 3140 3140 3140 3140 3140 3140 3140 3140 3139 3139 3139 3139 3138 3138 3138 3138 3137 3137 3137 3137 3136 3136 3136 3135 3135 3134 3134 3133 3133 3132 3132 3131 3131 3130 3130 3129 3128 3128 3127 3127 3126 3125 3124 3123 3123 3122 3121 3121 3120 3119 3118 3117 3116 3115 3114 3114 3113 3112 3111 3110 3109 3108 3107 3106 3104 3103 3102 3102
3134 3134 3135 3135 3135 3135 3135 3135 3136 3136 3136 3137 3136 3136 3137 3137 3137 3137 3137 3137 3137 3138 3138 3138 3138 3138 3138 3138 3138 3139 3139 3139 3139 3139 3139 3139 3139 3139 3139 3139 3138 3138 3138 3138 3138 3138 3138 3137 3137 3137 3137 3137 3136 3136 3136 3135 3135 3134 3134 3133 3133 3132 3132 3131 3131 3130 3130 3129 3129 3128 3128 3127 3127 3126 3125 3125 3124 3123 3122 3121 3121 3120 3119 3118 3117 3117 3116 3115 3114 3113 3112 3111 3110 3109 3108 3107 3106 3105 3104 3103 3102 3101 3100
3133 3134 3134 3134 3134 3134 3134 3135 3135 3135 3135 3135 3135 3135 3136 3136 3136 3136 3136 3136 3137 3137 3137 3137 3137 3137 3137 3137 3137 3138 3138 3138 3138 3138 3138 3138 3138 3138 3138 3137 3137 3137 3137 3137 3137 3137 3137 3136 3136 3136 3136 3135 3135 3135 3134 3134 3133 3133 3132 3132 3132 3131 3131 3130 3129 3129 3128 3128 3127 3127 3126 3126 3125 3124 3124 3123 3122 3122 3121 3120 3119 3118 3117 3117 3116 3115 3114 3113 3112 3112 3111 3110 3109 3108 3107 3106 3105 3103 3102 3101 3100 3099 3098
3132 3133 3133 3133 3133 3133 3133 3134 3134 3134 3134 3134 3134 3134 3134 3135 3135 3135 3136 3136 3136 3136 3136 3136 3136 3136 3136 3136 3136 3137 3137 3137 3137 3137 3137 3137 3137 3137 3137 3137 3136 3136 3136 3136 3136 3136 3135 3135 3135 3135 3135 3134 3134 3133 3133 3132 3132 3132 3131 3131 3130 3130 3129 3129 3128 3127 3127 3127 3126 3125 3125 3124 3123 3123 3122 3122 3121 3120 3119 3119 3118 3117 3116 3115 3114 3113 3112 3112 3111 3110 3109 3108 3107 3106 3105 3104 3103 3102 3101 3099 3098 3097 3096
3132 3132 3132 3132 3132 3132 3132 3133 3133 3133 3133 3133 3133 3133 3133 3134 3134 3135 3135 3135 3135 3135 3135 3135 3135 3135 3135 3135 3135 3135 3136 3136 3136 3136 3136 3136 3136 3136 3135 3135 3135 3135 3135 3135 3134 3134 3134 3134 3134 3134 3133 3133 3133 3132 3132 3131 3131 3130 3130 3129 3129 3128 3128 3127 3127 3126 3126 3125 3124 3124 3123 3122 3122 3121 3121 3120 3119 3118 3117 3117 3116 3115 3114 3114 3113 3112 3111 3110 3109 3108 3107 3106 3105 3104 3103 3102 3101 3100 3099 3098 3097 3096 3094
3130 3131 3131 3131 3131 3132 3132 3132 3132 3132 3132 3132 3132 3132 3132 3133 3133 3134 3134 3134 3134 3134 3134 3134 3134 3134 3134 3134 3134 3134 3135 3135 3135 3135 3135 3135 3134 3134 3134 3134 3134 3134 3133 3133 3133 3133 3133 3132 3132 3132 3132 3132 3131 3131 3130 3130 3129 3129 3128 3128 3127 3127 3127 3126 3125 3125 3124 3123 3123 3122 3122 3121 3120 3119 3119 3118 3117 3117 3116 3115 3114 3113 3112 3112 3111 3110 3109 3108 3107 3107 3106 3104 3103 3102 3101 3100 3099 3098 3097 3096 3095 3094 3093
3129 3130 3130 3130 3130 3130 3130 3131 3131 3132 3132 3131 3131 3131 3131 3132 3132 3133 3133 3133 3133 3133 3133 3133 3133 3133 3133 3133 3133 3133 3133 3133 3133 3133 3133 3133 3133 3133 3133 3133 3132 3132 3133 3132 3132 3131 3132 3131 3131 3131 3131 3130 3130 3129 3129 3128 3128 3127 3127 3126 3126 3125 3125 3124 3124 3123 3122 3122 3121 3121 3120 3119 3118 3118 3117 3116 3115 3114 3114 3113 3112 3111 3110 3109 3109 3108 3107 3106 3106 3104 3103 3102 3101 3100 3099 3098 3097 3096 3095 3094 3093 3092 3091
3128 3128 3129 3129 3129 3129 3129 3130 3130 3130 3130 3130 3130 3130 3130 3131 3131 3132 3132 3132 3132 3132 3132 3132 3132 3132 3132 3132 3132 3132 3132 3132 3132 3132 3132 3132 3132 3132 3132 3132 3132 3132 3131 3131 3130 3130 3130 3131 3130 3129 3129 3128 3128 3127 3127 3127 3126 3126 3125 3125 3124 3124 3123 3123 3122 3122 3121 3120 3120 3119 3118 3117 3117 3116 3115 3114 3113 3112 3112 3111 3110 3109 3108 3107 3106 3106 3105 3104 3103 3102 3102 3100 3099 3098 3097 3096 3095 3094 3093 3092 3091 3090 3089
3127 3127 3128 3128 3128 3128 3128 3129 3129 3129 3129 3129 3129 3129 3129 3130 3130 3130 3131 3131 3131 3132 3131 3131 3131 3131 3131 3131 3132 3132 3131 3131 3131 3131 3131 3131 3131 3130 3130 3130 3131 3130 3129 3129 3129 3129 3129 3129 3129 3128 3127 3127 3127 3126 3126 3125 3124 3124 3123 3123 3122 3122 3122 3121 3120 3120 3119 3119 3118 3117 3117 3116 3115 3114 3113 3112 3111 3110 3109 3108 3107 3107 3106 3105 3104 3103 3102 3102 3101 3100 3099 3098 3097 3096 3095 3094 3093 3092 3091 3090 3089 3088 3087
3126 3126 3127 3127 3127 3127 3127 3127 3128 3128 3128 3128 3128 3128 3128 3129 3129 3129 3130 3130 3130 3131 3130 3130 3130 3130 3130 3130 3130 3130 3130 3130 3129 3129 3129 3129 3129 3129 3129 3129 3129 3128 3128 3128 3128 3128 3128 3127 3127 3126 3126 3126 3126 3124 3123 3123 3123 3122 3122 3121 3121 3120 3120 3119 3119 3118 3117 3117 3117 3116 3115 3114 3113 3112 3111 3110 3109 3108 3107 3106 3105 3104 3103 3102 3102 3101 3100 3099 3098 3098 3097 3096 3095 3094 3093 3092 3091 3090 3088 3087 3086 3085 3085
3124 3125 3125 3126 3126 3126 3126 3126 3127 3127 3127 3127 3127 3127 3127 3128 3128 3128 3129 3129 3129 3129 3129 3129 3129 3129 3129 3129 3129 3129 3129 3129 3128 3128 3128 3128 3128 3128 3128 3128 3127 3127 3127 3127 3127 3127 3126 3126 3125 3124 3124 3124 3124 3123 3122 3122 3121 3121 3120 3120 3119 3119 3118 3117 3117 3116 3116 3115 3115 3114 3114 3112 3112 3110 3109 3108 3107 3106 3105 3104 3103 3102 3101 3100 3099 3098 3097 3097 3096 3095 3094 3093 3092 3091 3090 3090 3088 3087 3086 3085 3084 3083 3082
3123 3123 3124 3124 3125 3125 3125 3125 3126 3126 3126 3126 3126 3126 3126 3127 3127 3127 3127 3128 3128 3128 3128 3128 3128 3128 3128 3128 3128 3128 3128 3128 3127 3127 3127 3127 3127 3127 3126 3126 3126 3126 3126 3126 3125 3125 3124 3123 3123 3123 3122 3122 3122 3122 3122 3120 3119 3119 3119 3118 3117 3117 3116 3115 3115 3114 3114 3113 3113 3112 3112 3111 3110 3109 3107 3106 3105 3104 3103 3102 3101 3100 3099 3098 3097 3096 3095 3094 3094 3093 3092 3091 3090 3089 3088 3087 3086 3085 3084 3083 3082 3081 3080
3122 3122 3123 3123 3123 3123 3124 3124 3124 3124 3125 3125 3125 3125 3125 3126 3126 3126 3126 3126 3127 3127 3127 3127 3127 3127 3127 3127 3127 3127 3127 3127 3127 3126 3126 3125 3125 3125 3125 3125 3125 3124 3124 3124 3124 3123 3123 3122 3122 3121 3121 3120 3119 3119 3120 3119 3118 3117 3117 3116 3116 3115 3114 3114 3113 3112 3112 3111 3111 3110 3110 3109 3108 3107 3106 3105 3103 3102 3101 3100 3099 3098 3097 3096 3094 3093 3093 3092 3091 3091 3090 3089 3088 3087 3086 3085 3084 3082 3082 3080 3079 3078 3077
3121 3121 3121 3122 3122 3122 3122 3122 3123 3123 3123 3123 3124 3124 3124 3124 3125 3125 3125 3125 3125 3125 3125 3126 3126 3126 3126 3125 3125 3125 3126 3126 3126 3126 3125 3124 3124 3124 3124 3123 3123 3123 3123 3122 3122 3122 3122 3121 3121 3120 3119 3119 3118 3117 3117 3117 3117 3117 3116 3115 3114 3113 3113 3112 3111 3111 3110 3109 3108 3108 3107 3106 3106 3105 3104 3102 3102 3100 3099 3098 3097 3096 3094 3093 3092 3091 3090 3089 3089 3088 3087 3087 3086 3085 3084 3082 3082 3080 3079 3078 3077 3076 3074
3119 3120 3120 3120 3121 3121 3121 3121 3122 3122 3122 3122 3122 3122 3123 3123 3123 3123 3123 3123 3123 3124 3124 3124 3124 3124 3124 3124 3124 3124 3124 3124 3124 3124 3124 3123 3123 3123 3122 3122 3122 3122 3121 3121 3121 3120 3120 3120 3119 3119 3118 3117 3117 3116 3115 3115 3114 3114 3114 3114 3113 3112 3111 3111 3110 3109 3108 3107 3106 3105 3104 3104 3103 3102 3101 3100 3099 3098 3097 3096 3095 3094 3092 3091 3090 3089 3088 3087 3086 3086 3085 3084 3084 3083 3082 3080 3079 3078 3077 3075 3074 3073 3072